Satellite: NOAA-14 Catalog number: 23455 Epoch time: 08310.81158261 Element set: 0375 Inclination: 098.9334 deg RA of node: 023.0384 deg Eccentricity: 0.0010360 Arg of perigee: 104.2470 deg Mean anomaly: 255.9830 deg Mean motion: 14.13751819 rev/day Decay rate: 1.4e-07 rev/day^2 Epoch rev: 71436 Checksum: 276
Satellite: NOAA-15 Catalog number: 25338 Epoch time: 08310.79886284 Element set: 0687 Inclination: 098.5670 deg RA of node: 299.1471 deg Eccentricity: 0.0010497 Arg of perigee: 354.6905 deg Mean anomaly: 005.4152 deg Mean motion: 14.24731019 rev/day Decay rate: 6.8e-07 rev/day^2 Epoch rev: 54496 Checksum: 335
Satellite: RESURS Catalog number: 25394 Epoch time: 08310.95686651 Element set: 0088 Inclination: 098.3698 deg RA of node: 348.3365 deg Eccentricity: 0.0001891 Arg of perigee: 113.9038 deg Mean anomaly: 246.2340 deg Mean motion: 14.24174508 rev/day Decay rate: -8.0e-08 rev/day^2 Epoch rev: 53662 Checksum: 315
Satellite: FENGYUN1 Catalog number: 25730 Epoch time: 08310.92174424 Element set: 0640 Inclination: 098.7372 deg RA of node: 282.0008 deg Eccentricity: 0.0021092 Arg of perigee: 122.1458 deg Mean anomaly: 238.1762 deg Mean motion: 14.07837896 rev/day Decay rate: 6.02e-06 rev/day^2 Epoch rev: 48890 Checksum: 294
Satellite: OKEAN-0 Catalog number: 25860 Epoch time: 08311.85353301 Element set: 517 Inclination: 097.7645 deg RA of node: 296.1964 deg Eccentricity: 0.0001168 Arg of perigee: 101.8210 deg Mean anomaly: 258.3127 deg Mean motion: 14.73543009 rev/day Decay rate: 3.4e-07 rev/day^2 Epoch rev: 50040 Checksum: 270
Satellite: NOAA-16 Catalog number: 26536 Epoch time: 08310.80803415 Element set: 0161 Inclination: 099.1694 deg RA of node: 303.1769 deg Eccentricity: 0.0010472 Arg of perigee: 184.1789 deg Mean anomaly: 175.9254 deg Mean motion: 14.12502092 rev/day Decay rate: 9.7e-07 rev/day^2 Epoch rev: 41876 Checksum: 309
Satellite: NOAA-17 Catalog number: 27453 Epoch time: 08310.84669148 Element set: 0161 Inclination: 098.5174 deg RA of node: 011.2507 deg Eccentricity: 0.0012483 Arg of perigee: 058.9892 deg Mean anomaly: 301.2490 deg Mean motion: 14.24015656 rev/day Decay rate: 1.65e-06 rev/day^2 Epoch rev: 33096 Checksum: 300
Satellite: NOAA-18 Catalog number: 28654 Epoch time: 08310.85621303 Element set: 0648 Inclination: 098.8825 deg RA of node: 250.1220 deg Eccentricity: 0.0013488 Arg of perigee: 274.8677 deg Mean anomaly: 085.0957 deg Mean motion: 14.11205238 rev/day Decay rate: -1.40e-06 rev/day^2 Epoch rev: 17845 Checksum: 311
/EX SB KEPS @ AMSAT $ORB08311.M Orbital Elements 08311.MISC
HR AMSAT ORBITAL ELEMENTS FOR MANNED AND MISCELLANEOUS SATELLITES FROM WA5QGD FORT WORTH,TX November 6, 2008 Send Subscribe/unsubscribe to KEPS at http://www.amsat.org/mailman/listinfo/keps BID: ORB08311.M TO ALL RADIO AMATEURS BT
Satellite: HUBBLE Catalog number: 20580 Epoch time: 08310.89394325 Element set: 0257 Inclination: 028.4677 deg RA of node: 118.9489 deg Eccentricity: 0.0003708 Arg of perigee: 091.0297 deg Mean anomaly: 269.0718 deg Mean motion: 15.00424891 rev/day Decay rate: 3.52e-06 rev/day^2 Epoch rev: 81628 Checksum: 315
Satellite: PO-34 Catalog number: 25520 Epoch time: 08310.35738533 Element set: 0118 Inclination: 028.4609 deg RA of node: 313.6189 deg Eccentricity: 0.0004968 Arg of perigee: 023.1624 deg Mean anomaly: 336.9191 deg Mean motion: 15.17252854 rev/day Decay rate: 4.35e-06 rev/day^2 Epoch rev: 55462 Checksum: 301
Satellite: ISS Catalog number: 25544 Epoch time: 08311.91500000 Element set: 599 Inclination: 051.6444 deg RA of node: 004.7127 deg Eccentricity: 0.0003473 Arg of perigee: 315.1862 deg Mean anomaly: 038.7382 deg Mean motion: 15.72414245 rev/day Decay rate: 9.158e-05 rev/day^2 Epoch rev: 57098 Checksum: 285
Satellite: CO-58 Catalog number: 28895 Epoch time: 08310.74130004 Element set: 162 Inclination: 098.0810 deg RA of node: 201.2721 deg Eccentricity: 0.0017492 Arg of perigee: 330.6293 deg Mean anomaly: 029.3957 deg Mean motion: 14.59711673 rev/day Decay rate: 1.57e-06 rev/day^2 Epoch rev: 16113 Checksum: 289
Satellite: FALCON Catalog number: 30776 Epoch time: 08310.52981829 Element set: 0444 Inclination: 035.4337 deg RA of node: 016.2206 deg Eccentricity: 0.0000205 Arg of perigee: 173.2578 deg Mean anomaly: 186.8141 deg Mean motion: 15.03093783 rev/day Decay rate: 4.15e-06 rev/day^2 Epoch rev: 09142 Checksum: 276
Satellite: MAST Catalog number: 31126 Epoch time: 08311.67723188 Element set: 455 Inclination: 098.0222 deg RA of node: 010.2887 deg Eccentricity: 0.0093755 Arg of perigee: 250.0276 deg Mean anomaly: 109.0820 deg Mean motion: 14.53455554 rev/day Decay rate: 7.0e-07 rev/day^2 Epoch rev: 8271 Checksum: 278
Satellite: CAPE1 Catalog number: 31130 Epoch time: 08310.94372507 Element set: 0457 Inclination: 098.0231 deg RA of node: 008.2724 deg Eccentricity: 0.0101954 Arg of perigee: 256.3381 deg Mean anomaly: 102.6401 deg Mean motion: 14.52004257 rev/day Decay rate: -2.0e-08 rev/day^2 Epoch rev: 08229 Checksum: 247
Satellite: COMPASS Catalog number: 32787 Epoch time: 08310.14635127 Element set: 0200 Inclination: 097.9737 deg RA of node: 009.5125 deg Eccentricity: 0.0016770 Arg of perigee: 043.0635 deg Mean anomaly: 317.1887 deg Mean motion: 14.81490505 rev/day Decay rate: 4.80e-06 rev/day^2 Epoch rev: 02827 Checksum: 288
Satellite: AAUSAT2 Catalog number: 32788 Epoch time: 08310.87509300 Element set: 192 Inclination: 097.9740 deg RA of node: 010.2627 deg Eccentricity: 0.0016395 Arg of perigee: 042.8436 deg Mean anomaly: 317.4033 deg Mean motion: 14.81602910 rev/day Decay rate: 2.34e-06 rev/day^2 Epoch rev: 2838 Checksum: 283
Satellite: DO-64 Catalog number: 32789 Epoch time: 08311.83495387 Element set: 204 Inclination: 097.9747 deg RA of node: 011.2674 deg Eccentricity: 0.0016485 Arg of perigee: 037.4608 deg Mean anomaly: 322.7737 deg Mean motion: 14.81521521 rev/day Decay rate: 4.17e-06 rev/day^2 Epoch rev: 2852 Checksum: 321
Satellite: CO-66 Catalog number: 32791 Epoch time: 08311.71842777 Element set: 187 Inclination: 097.9756 deg RA of node: 011.0985 deg Eccentricity: 0.0016887 Arg of perigee: 036.2061 deg Mean anomaly: 324.0284 deg Mean motion: 14.81338399 rev/day Decay rate: -3.7e-07 rev/day^2 Epoch rev: 2847 Checksum: 336
Satellite: RS-30 Catalog number: 32953 Epoch time: 08310.75016744 Element set: 0151 Inclination: 082.5048 deg RA of node: 035.5512 deg Eccentricity: 0.0017918 Arg of perigee: 307.7379 deg Mean anomaly: 052.2078 deg Mean motion: 12.42997893 rev/day Decay rate: 1.0e-07 rev/day^2 Epoch rev: 02063 Checksum: 289
/EX
participants (1)
-
Ray Hoad